This is the latest recevied weather packets stored in our database for station/object KA6AKH-WX. If no packets are shown the sender has not sent any weather packets the latest 10 day(s).
| Time | Temp. | Humidity | Pressure | Rain* | Wind** | Luminosity | Snow |
|---|---|---|---|---|---|---|---|
| 1788130613 | 28.89° C | 66% | 1018.6 hPa | 0 mm | - | - | - |
| 1788130013 | 29.44° C | 65% | 1018.7 hPa | 0 mm | - | - | - |
| 1788129413 | 29.44° C | 64% | 1018.8 hPa | 0 mm | - | - | - |
| 1788128813 | 29.44° C | 63% | 1018.5 hPa | 0 mm | - | - | - |
| 1788128213 | 29.44° C | 63% | 1018.3 hPa | 0 mm | - | - | - |
| 1788127613 | 29.44° C | 62% | 1018.2 hPa | 0 mm | - | - | - |
| 1788127013 | 30° C | 61% | 1018.1 hPa | 0 mm | - | - | - |
| 1788125785 | 30.56° C | 59% | 1018.3 hPa | 0 mm | - | - | - |
| 1788125186 | 30.56° C | 59% | 1018.4 hPa | 0 mm | - | - | - |
| 1788124588 | 30.56° C | 58% | 1018.3 hPa | 0 mm | - | - | - |
| 1788123983 | 30.56° C | 58% | 1018.3 hPa | 0 mm | - | - | - |
| 1788123383 | 31.67° C | 56% | 1018.2 hPa | 0 mm | - | - | - |
| 1788122785 | 32.22° C | 54% | 1018.2 hPa | 0 mm | - | - | - |
| 1788122183 | 32.22° C | 53% | 1018.4 hPa | 0 mm | - | - | - |
| 1788121583 | 32.22° C | 55% | 1018.6 hPa | 0 mm | - | - | - |
| 1788120983 | 31.67° C | 54% | 1018.6 hPa | 0 mm | - | - | - |
| 1788120353 | 31.67° C | 54% | 1018.5 hPa | 0 mm | - | - | - |
| 1788119752 | 32.22° C | 54% | 1018.6 hPa | 0 mm | - | - | - |
| 1788119153 | 32.22° C | 54% | 1018.6 hPa | 0 mm | - | - | - |
| 1788118552 | 32.22° C | 53% | 1018.7 hPa | 0 mm | - | - | - |
| 1788117952 | 32.22° C | 55% | 1018.8 hPa | 0 mm | - | - | - |
| 1788117323 | 32.22° C | 54% | 1018.9 hPa | 0 mm | - | - | - |
| 1788115525 | 31.67° C | 56% | 1019.6 hPa | 0 mm | - | - | - |
| 1788114922 | 31.67° C | 56% | 1019.8 hPa | 0 mm | - | - | - |
| 1788114327 | 31.11° C | 58% | 1020 hPa | 0 mm | - | - | - |
* Rain latest hour (hover to see other rain measurements)
** Current wind speed in m/s (hover to see current wind gust speed)